TITAN 3C TRANSTAGE DEB, 20760

Orbit data source: Space-Track

TITAN 3C TRANSTAGE DEB, 20760 is space debris in HEO originally from a launch on Tue, 21 Dec 1965 UTC launched from the Air Force Eastern Test Range (AFETR). Debris objects in space refer to the collection of defunct objects orbiting the Earth. Examples of debris include non-operational satellites, rocket bodies, and fragments generated from explosions, collisions, or faulty payload assembly.

Loading next visibility...
Identifier
20760, 1965-108AE
Orbit
HEO
Country
Flag of USUS
Related business
Manufacturer
Unknown
Mission
Spacecraft
Bus & Motor
Unknown
Mass
Unknown
Launch date (UTC)
1965-12-21 (60 years ago)
Launch vehicle
Unknown
Launch site
Air Force Eastern Test Range (AFETR)
Object type
Payload
Rocket body
Debris
Shape & HBR
Unknown shape, 0.2 m
Radar Cross Section
Medium (>0.1 m² and <1 m²)

Expand to show TLE details & history
Last TLE update: 5 days ago

TLE from 5 days ago
0 TITAN 3C TRANSTAGE DEB
1 20760U 65108AE  25301.78860850  .00000667  00000-0  56880-2 0  9996
2 20760  27.1639  65.0730 6702608 133.1685 293.6409  2.84494341144755
Epoch: 2025-10-28T18:55Z
TLE epoch observation values (Epoch: 2025-10-28T18:55:35.774Z)
Latitude
-3.82949°
Longitude
96.28927°
Altitude
18,021.639 km
Speed
3.705 km/s
True Right ascension
03h 50m 14s
True Declination
-3° 49' 22"
Sunlit
Object was in daylight at epoch
Visualization orbit readout
Latitude
Unknown
Longitude
Unknown
Altitude
Unknown
Speed
Unknown
Apparent Right ascension
Unknown
Apparent Declination
Unknown
Sunlit
N/A
Visualization observer readout
Local Sidereal Time
03:58:51
Azimuth
Unknown
Elevation
Unknown
Doppler factor
Unknown
Orbital elements
Apogee altitude
28,767.923 km
Perigee altitude
560.321 km
Semi-major axis
21,042.259 km
Eccentricity
0.67026
Inclination
27.1639°
RAAN
65.073°
Arg. of periapsis
133.1685°
True anomaly
218.49638°
Mean anomaly
293.6409°
Eccentric anomaly
256.32623°
Mean motion
0.71106 °/min
Orbital period
506.29 mins
BSTAR
0.005688
Loading maneuver chart data...
Computing Atmospheric mass density...

Documentation

Showing up to 5 results
|